Lid_Strength_Index
1 1 1 1 1 1 1 1 0 1 1 1 1 1 1 2 2 2 2 2 2 2
1 1 1 1 1 2 2 2 2 2 2 2 2 2 2 2 2 2 2 1 2 2
3 3 3 3 3 3 3 3 2 2 2 2 2 2 2 2 2 2 2 2 2 2
3 4 4 4 4 3 3 3 3 2 2 2 2 2 2 2 2 2 2 3 4 4
4 4 4 4 4 3 3 3 3 3 2 2 4 3 3 4 5 5 5 6 6 7
5 5 5 5 5 4 5 5 5 5 6 6 5 5 6 5 6 6 7 8 8 8
6 6 6 6 7 7 6 6 7 7 7 7 7 8 8 8 9 9 9 9 9 9
8 8 8 8 8 8 8 8 8 8 9 9 9 9 9 9 9 10 10 10 10 11
8 9 9 8 9 9 9 9 9 9 10 10 8 6 7 9 10 10 10 10 11 10
9 9 10 9 9 10 10 10 11 11 11 11 9 7 7 8 10 12 11 10 12 11
9 9 10 10 11 11 11 11 12 12 11 11 9 6 7 8 10 10 10 10 11 11
9 10 10 11 11 11 11 11 11 11 11 11 11 7 7 10 12 13 13 12 12 11
9 10 11 11 12 12 11 11 11 12 12 9 12 8 8 9 12 14 13 12 11 9
10 10 10 11 12 12 11 11 12 11 11 10 12 12 8 7 11 11 12 12 12 12